[[{"header":{"parameterUnit":"m.s-1","parameterCategory":1,"la1":30.2991,"la2":30.254,"lo1":-89.0895,"lo2":-89.0444,"dy":0.0017,"dx":0.0017,"nx":28,"ny":28,"refTime":"2024-12-18T03:00:00:Z","depth":0,"parameterNumber":2,"parameterNumberName":"U-component_of_WINDS"},"data":[0,0,0,0,0,0,0,0,0,0,0,0,0,0,0,0,0,0,0,0,0,0,0,0,0,0,0,0,0,0,0,0,0,0,0,0,0,0,0,0,0,0,0,0,0,0,0,0,0,0,0,0,0,0,0,0,0,0,0.9313,0.9313,0,0.9358,0.9358,0.9359,0.9371,0.9371,0.9371,0.937,0.9415,0.9416,0.9418,0,0,0,0,0,0,0,0,0,0,0,0,0,0.9238,0.9239,0.9313,0.9313,0.9314,0.9358,0.9358,0.9359,0.9371,0.9371,0.9371,0.937,0.9414,0.9416,0.9418,0,0,0,0,0,0,0,0,0,0,0,0,0,0.9275,0.924,0.9312,0.9325,0.9327,0.9357,0.9358,0.9359,0.9371,0.9371,0.9371,0.937,0.9414,0.9416,0.9418,0.9438,0,0,0.9424,0.9425,0,0,0,0,0,0,0,0,0.9273,0.9278,0.9323,0.9324,0.9326,0.9358,0.9348,0.9386,0.9371,0.9354,0.937,0.937,0.9396,0.94,0.9409,0.9441,0.9442,0.9425,0.9426,0.9427,0.9427,0,0,0,0,0,0,0,0.9271,0.9276,0.933,0.9323,0.9326,0.9329,0.9334,0.9355,0.9377,0.9356,0.9357,0.9362,0.9397,0.9407,0.941,0.9443,0.9425,0.9426,0.9428,0.9429,0.9497,0.9497,0,0,0,0,0,0,0.9266,0.9274,0.9329,0.9332,0.9298,0.9331,0.9336,0.9348,0.9377,0.9381,0.9362,0.9363,0.9403,0.9408,0.9412,0.9439,0.9427,0.9429,0.943,0.9496,0.9497,0.9497,0,0,0,0,0,0,0.9264,0.9271,0.9327,0.9303,0.9311,0.9332,0.9346,0.935,0.9359,0.9382,0.9385,0.9368,0.9403,0.9409,0.9432,0.9441,0.943,0.9432,0.9496,0.9496,0.9497,0.9493,0,0,0,0,0,0,0.9262,0.927,0.9278,0.9303,0.9312,0.9347,0.9347,0.9351,0.9363,0.9364,0.9388,0.9392,0.9403,0.9429,0.9435,0.9444,0.9433,0.9495,0.9496,0.9497,0.9493,0.9494,0.9495,0,0,0,0,0,0.9259,0.9274,0.9278,0.9284,0.9322,0.9347,0.9352,0.9366,0.9364,0.9372,0.9387,0.9391,0.9439,0.9432,0.9438,0.9447,0.9494,0.9496,0.9497,0.9492,0.9494,0.9495,0,0,0,0,0,0,0.9247,0.9277,0.9282,0.9305,0.9324,0.9349,0.936,0.9366,0.9385,0.9385,0.94,0.9406,0.9429,0.9441,0.9431,0.947,0.9467,0.9469,0.9462,0.9463,0.9464,0.9461,0.9435,0,0,0,0,0,0.9248,0.9266,0.9291,0.9309,0.9318,0.9338,0.9349,0.9358,0.9378,0.9385,0.9402,0.942,0.944,0.9452,0.9471,0.9495,0.9501,0.9505,0.9506,0.9507,0.9509,0.9525,0.9527,0.9501,0.9501,0.9501,0,0,0.9248,0.9267,0.9277,0.9307,0.9323,0.9342,0.9344,0.9363,0.9378,0.9388,0.9412,0.9425,0.9447,0.9471,0.9483,0.9482,0.9518,0.9508,0.9509,0.951,0.9526,0.9528,0.9531,0.9502,0.9502,0.9502,0,0,0.9258,0.9274,0.9292,0.9308,0.9331,0.9345,0.9349,0.9374,0.9384,0.9408,0.9417,0.9435,0.9468,0.9484,0.9496,0.9516,0.9521,0.9522,0.9527,0.9542,0.9544,0.9546,0.9555,0.9557,0.9524,0.9524,0.9524,0,0.9255,0.9284,0.93,0.932,0.9333,0.9345,0.9364,0.9379,0.9407,0.9417,0.9416,0.9459,0.9474,0.9504,0.9509,0.9518,0.9525,0.9519,0.9543,0.9545,0.9547,0.9555,0.9558,0.9524,0.9524,0.9524,0.9524,0,0.928,0.93,0.9312,0.9341,0.9356,0.9375,0.9394,0.9408,0.9417,0.943,0.9457,0.9476,0.95,0.9508,0.9516,0.9539,0.9538,0.954,0.9537,0.9549,0.9557,0.956,0.9524,0.9524,0.9524,0.9524,0,0,0.9282,0.9322,0.9326,0.934,0.9369,0.9385,0.9405,0.943,0.9442,0.9462,0.9481,0.951,0.9512,0.9526,0.9536,0.955,0.9567,0.955,0.9551,0.9553,0.9596,0.9595,0.9598,0.9571,0.9571,0.9572,0.9594,0,0.9296,0.9334,0.935,0.938,0.94,0.9413,0.9432,0.9451,0.9466,0.9485,0.95,0.9521,0.9522,0.9531,0.9545,0.9561,0.9575,0.956,0.9588,0.9589,0.9583,0.9602,0.96,0.9621,0.9597,0.9598,0.9598,0,0.9317,0.934,0.9372,0.9401,0.941,0.9426,0.9452,0.947,0.9493,0.9503,0.952,0.9531,0.9554,0.955,0.9583,0.9572,0.9585,0.9595,0.9596,0.9599,0.9594,0.9606,0.9627,0.9631,0.9603,0.9603,0.9602,0,0.9317,0.9355,0.938,0.9391,0.9425,0.9437,0.9451,0.9475,0.949,0.9512,0.9522,0.9547,0.956,0.9579,0.9596,0.9592,0.9628,0.9625,0.9638,0.9637,0.9644,0.9643,0.9668,0.9652,0.9652,0.9652,0.9652,0,0.9331,0.9351,0.938,0.9395,0.9419,0.9438,0.946,0.9476,0.9497,0.9516,0.9529,0.9547,0.9568,0.9589,0.9603,0.9629,0.9635,0.9644,0.9647,0.9643,0.9642,0.9651,0.965,0.9652,0.9652,0.9652,0.9652,0,0.9334,0.9354,0.9383,0.9414,0.9422,0.9438,0.9464,0.948,0.9496,0.9521,0.9527,0.9552,0.9578,0.9597,0.9629,0.9639,0.9667,0.967,0.9659,0.9661,0.9673,0.9671,0.9704,0.971,0.9689,0.9689,0.969,0,0.9342,0.9357,0.9391,0.9405,0.942,0.9443,0.9459,0.9479,0.9495,0.9525,0.9538,0.9565,0.9587,0.9628,0.9649,0.9675,0.9679,0.9689,0.9683,0.9679,0.968,0.9679,0.9682,0.9689,0.9689,0.9689,0.969,0,0.9354,0.9364,0.9387,0.9414,0.9433,0.9455,0.9477,0.9488,0.9513,0.9531,0.9558,0.9575,0.961,0.9637,0.9666,0.9681,0.969,0.9692,0.9696,0.9692,0.9685,0.969,0.9662,0.969,0.969,0.969,0.969,0.969,0.936,0.9375,0.9402,0.9428,0.9447,0.9469,0.9486,0.9505,0.9528,0.9559,0.957,0.9598,0.9624,0.9663,0.968,0.9702,0.9702,0.9708,0.971,0.9711,0.9712,0.9682,0.9708,0.9708,0.9708,0.9708,0.9708,0,0.9373,0.9392,0.9416,0.9448,0.9468,0.9476,0.9502,0.9519,0.9544,0.9568,0.9591,0.9623,0.965,0.9674,0.9703,0.9717,0.9721,0.9723,0.9723,0.9726,0.9709,0.9703,0.9719,0.9719,0.9719,0.9719,0.9719,0.9719,0.9383,0.9411,0.9424,0.9462,0.9481,0.9509,0.9524,0.9544,0.9564,0.96,0.9623,0.9639,0.9663,0.9694,0.972,0.9727,0.9737,0.9738,0.9745,0.9729,0.9727,0.9726,0.972,0.974,0.974,0.9761,0.9761,0.9761]},{"header":{"parameterUnit":"m.s-1","parameterCategory":1,"la1":30.2991,"la2":30.254,"lo1":-89.0895,"lo2":-89.0444,"dy":0.0017,"dx":0.0017,"nx":28,"ny":28,"refTime":"2024-12-18T03:00:00:Z","depth":0,"parameterNumber":3,"parameterNumberName":"V-component_of_WINDS"},"data":[0,0,0,0,0,0,0,0,0,0,0,0,0,0,0,0,0,0,0,0,0,0,0,0,0,0,0,0,0,0,0,0,0,0,0,0,0,0,0,0,0,0,0,0,0,0,0,0,0,0,0,0,0,0,0,0,0,0,-5.3427,-5.3427,0,-5.3459,-5.346,-5.346,-5.3422,-5.3421,-5.3419,-5.3418,-5.3448,-5.345,-5.3452,0,0,0,0,0,0,0,0,0,0,0,0,0,-5.3332,-5.3334,-5.3427,-5.3427,-5.3428,-5.3459,-5.346,-5.346,-5.3422,-5.342,-5.3419,-5.3417,-5.3447,-5.345,-5.3453,0,0,0,0,0,0,0,0,0,0,0,0,0,-5.337,-5.3335,-5.3427,-5.3413,-5.3412,-5.3459,-5.346,-5.346,-5.3423,-5.342,-5.3418,-5.3416,-5.3447,-5.345,-5.3453,-5.3515,0,0,-5.3463,-5.3464,0,0,0,0,0,0,0,0,-5.3368,-5.3373,-5.3415,-5.3414,-5.3413,-5.3434,-5.3437,-5.3478,-5.3423,-5.3418,-5.3418,-5.3415,-5.3445,-5.3448,-5.3459,-5.3516,-5.3518,-5.3463,-5.3465,-5.3466,-5.3467,0,0,0,0,0,0,0,-5.3365,-5.3372,-5.344,-5.3415,-5.3414,-5.3405,-5.3408,-5.3445,-5.3443,-5.3419,-5.3416,-5.342,-5.3444,-5.3456,-5.3459,-5.3518,-5.3463,-5.3466,-5.3468,-5.3469,-5.3631,-5.3633,0,0,0,0,0,0,-5.3364,-5.337,-5.3439,-5.3441,-5.3385,-5.3408,-5.3411,-5.343,-5.3443,-5.3443,-5.3422,-5.3419,-5.3452,-5.3456,-5.346,-5.3535,-5.3466,-5.3469,-5.3471,-5.3628,-5.3631,-5.3634,0,0,0,0,0,0,-5.3363,-5.3371,-5.3437,-5.3405,-5.3412,-5.3412,-5.3433,-5.3431,-5.3443,-5.3445,-5.3445,-5.3435,-5.345,-5.3456,-5.3502,-5.3536,-5.3471,-5.3473,-5.3625,-5.3629,-5.3632,-5.3685,0,0,0,0,0,0,-5.336,-5.337,-5.3394,-5.3405,-5.3414,-5.3479,-5.3435,-5.3434,-5.3449,-5.3444,-5.3457,-5.3457,-5.3449,-5.3498,-5.3506,-5.3539,-5.3476,-5.3622,-5.3627,-5.3631,-5.3681,-5.369,-5.3699,0,0,0,0,0,-5.3357,-5.3406,-5.3395,-5.3404,-5.3444,-5.3481,-5.3486,-5.3477,-5.3452,-5.3476,-5.3478,-5.3456,-5.3531,-5.3503,-5.3511,-5.3546,-5.362,-5.3626,-5.3631,-5.3677,-5.3688,-5.3698,0,0,0,0,0,0,-5.3397,-5.3407,-5.3395,-5.345,-5.3465,-5.3475,-5.3504,-5.3489,-5.3511,-5.3506,-5.3492,-5.3496,-5.3546,-5.355,-5.3519,-5.3608,-5.3571,-5.3579,-5.3603,-5.3615,-5.3623,-5.3621,-5.3479,0,0,0,0,0,-5.3413,-5.3443,-5.345,-5.3498,-5.3506,-5.3504,-5.352,-5.3512,-5.3527,-5.3532,-5.3538,-5.3552,-5.3579,-5.3597,-5.3622,-5.3681,-5.3684,-5.371,-5.3719,-5.3726,-5.3733,-5.3767,-5.3779,-5.3651,-5.3651,-5.3651,0,0,-5.3444,-5.3454,-5.3473,-5.3506,-5.3517,-5.3549,-5.351,-5.3544,-5.3568,-5.3537,-5.3582,-5.3587,-5.3602,-5.3657,-5.368,-5.3662,-5.3769,-5.3733,-5.3739,-5.3741,-5.3773,-5.3785,-5.3796,-5.3655,-5.3654,-5.3654,0,0,-5.3519,-5.3529,-5.3571,-5.3583,-5.3601,-5.36,-5.361,-5.3622,-5.3625,-5.367,-5.3649,-5.3677,-5.3723,-5.3735,-5.3748,-5.3831,-5.3813,-5.3839,-5.3886,-5.392,-5.393,-5.3938,-5.397,-5.3981,-5.3846,-5.3846,-5.3846,0,-5.3556,-5.3604,-5.3594,-5.3631,-5.3647,-5.3623,-5.3666,-5.3678,-5.3702,-5.3714,-5.3693,-5.3753,-5.3761,-5.3819,-5.384,-5.385,-5.3862,-5.3838,-5.3929,-5.3938,-5.3946,-5.3975,-5.3987,-5.3849,-5.3849,-5.3848,-5.3848,0,-5.3649,-5.3683,-5.3715,-5.3741,-5.376,-5.38,-5.3797,-5.3818,-5.3809,-5.381,-5.3857,-5.3867,-5.3895,-5.3908,-5.3898,-5.3965,-5.3953,-5.3931,-5.3894,-5.3962,-5.3989,-5.4,-5.3854,-5.3852,-5.3851,-5.3851,0,0,-5.3748,-5.3771,-5.3783,-5.3796,-5.3815,-5.3841,-5.388,-5.3909,-5.3927,-5.3945,-5.3979,-5.402,-5.4001,-5.4015,-5.4007,-5.4036,-5.4104,-5.401,-5.4011,-5.4029,-5.418,-5.4197,-5.421,-5.4092,-5.4094,-5.4096,-5.4179,0,-5.3825,-5.3894,-5.3888,-5.3954,-5.3986,-5.3965,-5.3999,-5.4015,-5.4018,-5.4045,-5.4047,-5.4078,-5.4049,-5.4058,-5.4086,-5.4089,-5.4134,-5.4083,-5.4123,-5.4125,-5.4121,-5.4224,-5.4242,-5.432,-5.419,-5.4191,-5.4193,0,-5.3922,-5.3946,-5.4016,-5.4033,-5.4046,-5.4077,-5.4104,-5.413,-5.4148,-5.4148,-5.4166,-5.4154,-5.4194,-5.4156,-5.4212,-5.4178,-5.4194,-5.4199,-5.4202,-5.4205,-5.4163,-5.4232,-5.4345,-5.4357,-5.4209,-5.4208,-5.4207,0,-5.399,-5.4039,-5.4088,-5.4099,-5.412,-5.4143,-5.4152,-5.4168,-5.4186,-5.421,-5.4222,-5.4249,-5.4264,-5.4286,-5.4282,-5.4254,-5.4339,-5.4301,-5.4341,-5.4341,-5.436,-5.4359,-5.4478,-5.4369,-5.4369,-5.4369,-5.4368,0,-5.4076,-5.4119,-5.4119,-5.4149,-5.4198,-5.4191,-5.424,-5.4246,-5.4261,-5.4292,-5.4275,-5.4305,-5.4297,-5.4326,-5.4323,-5.4371,-5.4378,-5.4379,-5.4378,-5.4381,-5.4381,-5.4392,-5.4387,-5.4372,-5.4371,-5.437,-5.437,0,-5.4159,-5.416,-5.4212,-5.4229,-5.4234,-5.4269,-5.4283,-5.4312,-5.4314,-5.4354,-5.4363,-5.4366,-5.4401,-5.4399,-5.4436,-5.4434,-5.4494,-5.4486,-5.4489,-5.4487,-5.4528,-5.4525,-5.4659,-5.4677,-5.4555,-5.4557,-5.4557,0,-5.4214,-5.4248,-5.4268,-5.4289,-5.4301,-5.4333,-5.4353,-5.4348,-5.4369,-5.4394,-5.442,-5.4452,-5.4478,-5.4534,-5.454,-5.4569,-5.4562,-5.4607,-5.4566,-5.4569,-5.4564,-5.4563,-5.4567,-5.4615,-5.4616,-5.4618,-5.4618,0,-5.4312,-5.4312,-5.4341,-5.4372,-5.4397,-5.442,-5.4441,-5.4459,-5.4456,-5.4481,-5.4516,-5.4537,-5.4577,-5.461,-5.4639,-5.4648,-5.4634,-5.4632,-5.4643,-5.4647,-5.4648,-5.4649,-5.4511,-5.4628,-5.4627,-5.4627,-5.4626,-5.4626,-5.4384,-5.4414,-5.4434,-5.4468,-5.4484,-5.4505,-5.4534,-5.4541,-5.4571,-5.4605,-5.46,-5.464,-5.4659,-5.4697,-5.4709,-5.474,-5.4724,-5.474,-5.4744,-5.4748,-5.4754,-5.4642,-5.4745,-5.4745,-5.4745,-5.4745,-5.4744,0,-5.4483,-5.4495,-5.4527,-5.4559,-5.4586,-5.4571,-5.4595,-5.4618,-5.4655,-5.4674,-5.4701,-5.4743,-5.4776,-5.4785,-5.4817,-5.4841,-5.4835,-5.4849,-5.4848,-5.4851,-5.4766,-5.4753,-5.4854,-5.4854,-5.4854,-5.4854,-5.4854,-5.4854,-5.4537,-5.4588,-5.4591,-5.465,-5.4662,-5.4702,-5.4718,-5.4737,-5.4753,-5.4802,-5.483,-5.4836,-5.4852,-5.4885,-5.4915,-5.4917,-5.493,-5.4948,-5.4947,-5.4867,-5.4856,-5.4846,-5.4834,-5.495,-5.495,-5.503,-5.503,-5.5031]}]]